SL-16 R/B (22285 NORAD) Tracking and Keplerian Element Data

This shows tracking and keplerian element data for the satellite.

Feedback or suggestion? Click here.




ElementValue
Catalog22285
NameSL-16 R/B
Epoch Orbit31823
Epoch Day198.89608619
Epoch Year2018
RAAN102.1769
Inclination71.023
Eccentricity0.0006315
Argument of Perigee254.0406
Mean Anonmoly106.0021
Mean Motion14.15027436
Decay Rate3.2E-07
L11 22285U 92093B 18198.89608619 .00000032 00000-0 41280-4 0 9990
L22 22285 71.0230 102.1769 0006315 254.0406 106.0021 14.15027436318236

Live tracking and technical data element details for SL-16 R/B (NORAD 22285). SL-16 R/B can be tracked NOW for your location showing map with azimuth and elevation plus other details from your city location.

Track the satellite on the map from your city or location and see movement details for azimuth, elevation, latitude, longitude, range, height, and movement on the map or in text.







IsCatalogInMostPopularTable: catalog: 22285, numindb: 25
Update: records affected: 1



GetName: 22285 SL-16 R/B

Hit Count: updated at: Thu, 19 Jul 2018 03:48:02 GMT